This is the latest recevied weather packets stored in our database for station/object WJ9H. If no packets are shown the sender has not sent any weather packets the latest 1 day(s).
| Time | Temp. | Humidity | Pressure | Rain* | Wind** | Luminosity | Snow |
|---|---|---|---|---|---|---|---|
| 1777982378 | 6.11° C | - | 1009.5 hPa | 0 mm | 0.89 m/s, 311° | - | - |
| 1777982088 | 6.67° C | - | 1009.5 hPa | 0 mm | 0.45 m/s, 20° | - | - |
| 1777981838 | 5.56° C | - | 1009.2 hPa | 0 mm | 1.34 m/s, 27° | - | - |
| 1777981776 | 5.56° C | - | 1009.2 hPa | 0 mm | 1.34 m/s, 27° | - | - |
| 1777981630 | 5° C | - | 1009.2 hPa | 0 mm | 0.45 m/s, 14° | - | - |
| 1777981178 | 5° C | - | 1009.2 hPa | 0 mm | 0.45 m/s, 14° | - | - |
| 1777980969 | 6.11° C | - | 1008.5 hPa | 0 mm | 0 m/s | - | - |
| 1777980888 | 5.56° C | - | 1009.2 hPa | 0 mm | 0.89 m/s, 31° | - | - |
| 1777980576 | 6.11° C | - | 1008.5 hPa | 0 mm | 0 m/s | - | - |
| 1777980019 | 6.11° C | - | 1008.2 hPa | 0 mm | 0 m/s | - | - |
| 1777979976 | 6.11° C | - | 1008.2 hPa | 0 mm | 0 m/s | - | - |
| 1777979688 | 5.56° C | - | 1007.8 hPa | 0 mm | 1.34 m/s, 24° | - | - |
| 1777979572 | 5° C | - | 1007.5 hPa | 0 mm | 0.89 m/s, 20° | - | - |
| 1777979519 | 5° C | - | 1007.5 hPa | 0 mm | 0.89 m/s, 20° | - | - |
| 1777979375 | 5° C | - | 1007.5 hPa | 0 mm | 0.89 m/s, 20° | - | - |
| 1777979169 | 4.44° C | - | 1007.5 hPa | 0 mm | 0.89 m/s, 17° | - | - |
| 1777978777 | 4.44° C | - | 1007.5 hPa | 0 mm | 0.89 m/s, 17° | - | - |
| 1777978488 | 4.44° C | - | 1007.5 hPa | 0 mm | 0 m/s | - | - |
| 1777978239 | 4.44° C | - | 1007.5 hPa | 0 mm | 0.89 m/s, 17° | - | - |
| 1777978178 | 4.44° C | - | 1007.5 hPa | 0 mm | 0.89 m/s, 17° | - | - |
| 1777977864 | 4.44° C | - | 1007.5 hPa | 0 mm | 0 m/s | - | - |
| 1777977577 | 4.44° C | - | 1007.5 hPa | 0 mm | 0 m/s | - | - |
| 1777977287 | 4.44° C | - | 1007.8 hPa | 0 mm | 0.89 m/s, 14° | - | - |
| 1777977108 | 4.44° C | - | 1007.8 hPa | 0 mm | 0 m/s | - | - |
| 1777976980 | 4.44° C | - | 1007.8 hPa | 0 mm | 0 m/s | - | - |
* Rain latest hour (hover to see other rain measurements)
** Current wind speed in m/s (hover to see current wind gust speed)